RH
17 17 17 18 18 18 18 18 20 20 14 18 20 19 13 10 9 8 9 9 9 9 12 17 18 18 30 100 84 99 100 94 100 100 100 100 98 100
18 18 19 19 20 22 25 26 26 23 23 20 22 17 12 10 10 10 11 12 13 14 21 23 22 48 100 100 100 100 97 100 100 100 98 100 100 98
20 20 21 21 22 24 26 26 24 19 16 22 18 14 12 11 10 12 17 31 42 31 28 27 29 66 66 65 90 100 100 100 100 95 95 90 100 96
20 21 21 23 26 28 28 26 23 18 16 15 15 13 12 11 12 12 17 26 49 41 34 35 38 34 38 41 35 45 86 100 100 83 88 96 95 88
21 21 25 28 28 28 26 22 19 17 17 20 16 15 17 41 38 31 33 37 39 36 36 43 42 41 41 39 83 95 71 45 26 39 46 43 46 64
23 28 29 26 22 19 18 17 18 20 21 26 51 41 76 100 93 78 42 37 35 36 39 35 29 30 32 33 30 29 29 30 30 31 30 25 40 76
29 24 18 16 13 12 17 19 23 26 49 89 84 96 100 82 71 62 48 42 38 42 34 27 37 40 43 48 44 40 42 44 40 37 49 68 91 90
19 16 12 7 7 10 15 19 26 77 100 99 100 96 84 77 57 54 56 50 35 35 64 62 79 68 72 72 69 66 64 64 58 60 66 58 48 57
15 10 7 7 10 12 13 20 36 86 100 100 96 82 60 59 64 63 56 64 74 69 88 78 80 73 76 77 78 74 68 64 74 86 80 77 68 67
10 7 8 9 12 19 32 68 100 81 79 77 65 62 65 66 71 89 92 90 84 81 98 94 73 77 83 77 78 78 76 77 81 94 98 100 99 93
8 8 12 17 27 41 98 80 58 60 61 57 56 59 77 96 99 99 93 97 86 78 96 90 78 80 83 71 72 83 86 88 95 96 96 95 96 98
7 10 22 33 42 82 65 59 58 56 50 49 65 90 100 100 100 100 100 97 93 73 94 96 84 91 85 72 76 84 74 85 97 96 97 97 99 98
13 21 30 42 51 55 62 61 58 61 66 86 91 98 98 98 98 99 100 100 94 86 97 100 91 95 99 83 78 80 83 96 99 98 97 97 97 97
27 33 41 49 55 60 61 58 69 90 92 92 96 95 93 94 96 96 98 98 100 100 98 100 97 99 94 84 88 99 96 100 97 98 97 97 97 98
36 38 46 52 58 58 61 90 98 93 91 89 90 95 97 97 97 95 97 97 97 97 98 98 98 99 98 96 98 95 97 99 97 96 97 97 97 100
36 40 49 56 59 64 92 96 95 96 96 95 94 96 96 96 96 95 95 95 94 97 98 98 99 98 98 97 97 98 98 91 94 95 96 99 100 94
38 43 50 52 61 84 89 98 98 97 95 96 95 93 91 83 96 97 97 97 97 95 94 98 97 97 96 97 97 97 92 94 96 97 97 99 99 90
41 49 53 67 86 88 91 92 97 94 95 95 97 97 88 88 95 98 98 97 95 95 96 96 96 97 97 97 89 86 95 96 97 96 97 96 94 99
49 55 69 88 89 94 96 95 92 95 96 100 100 99 100 100 99 98 96 96 97 94 97 96 96 96 97 95 96 100 97 97 96 96 97 97 98 97
52 67 88 91 94 95 96 95 94 96 97 98 100 100 100 99 98 99 93 95 96 96 97 96 96 95 97 96 96 99 98 97 96 96 95 97 95 97
61 92 94 94 95 96 96 96 97 97 99 100 100 100 100 98 100 99 98 100 100 96 96 97 95 94 97 98 96 94 95 97 97 97 96 95 96 96
81 95 95 95 96 96 97 99 100 100 100 100 100 100 100 100 100 99 98 99 96 97 95 96 94 94 98 96 93 94 93 94 96 96 97 96 94 96
91 94 95 96 95 94 96 97 99 100 99 100 100 100 100 97 98 100 100 100 100 97 97 96 96 95 96 96 93 90 94 93 94 95 90 96 96 96
Wind_Speed
45 47 49 51 52 53 55 57 61 71 73 66 63 59 59 58 57 57 58 58 57 55 54 54 54 53 49 42 41 40 43 49 44 50 47 48 48 47
47 49 50 52 54 55 56 58 58 61 68 63 60 60 59 60 57 58 58 58 56 54 52 51 50 49 42 45 46 47 49 48 48 47 47 46 47 48
49 51 52 55 56 56 57 57 58 58 62 61 58 57 57 59 60 60 59 57 58 56 54 51 50 48 49 50 51 50 48 47 44 45 46 47 45 48
52 53 55 56 56 56 57 58 59 58 57 59 58 58 58 58 59 61 58 59 62 59 51 48 45 42 42 44 43 44 41 38 42 44 45 40 41 42
53 55 55 56 57 58 59 59 58 57 55 55 58 57 55 54 55 58 60 61 57 50 47 42 38 38 35 36 35 37 43 46 46 47 47 48 48 46
54 53 55 57 60 61 60 58 56 54 52 51 51 53 47 46 55 62 62 54 49 44 40 35 37 34 33 34 35 37 39 41 41 41 39 38 38 39
52 54 57 59 58 57 55 54 51 49 47 46 47 47 53 56 61 60 53 49 44 43 42 39 39 35 32 32 33 35 38 39 39 39 41 38 39 37
56 58 59 59 58 56 52 49 44 41 40 42 45 52 59 60 52 47 47 46 49 39 43 41 42 39 37 34 34 35 36 38 41 43 44 43 42 39
58 59 59 56 53 51 50 48 43 39 40 43 56 57 53 47 45 45 44 45 48 45 43 43 34 37 32 32 29 30 32 34 37 40 44 45 46 43
58 57 54 52 50 49 47 42 41 46 48 50 49 46 41 40 40 43 46 47 44 39 37 43 34 34 32 28 23 26 29 32 34 35 37 38 44 46
56 52 50 49 47 42 37 43 47 45 43 40 34 34 35 38 37 37 37 40 41 36 29 37 34 37 33 21 18 20 25 31 30 33 34 38 41 42
53 49 46 44 40 36 41 44 43 40 37 35 34 34 32 28 28 29 33 36 38 37 28 36 35 37 41 20 18 18 25 26 25 25 25 27 34 46
50 48 44 40 38 40 39 37 36 36 35 37 35 29 27 27 28 29 30 32 34 35 31 33 37 36 36 32 9 15 17 12 10 12 16 19 18 24
48 44 40 39 39 37 34 32 32 34 35 31 29 28 30 29 29 28 27 27 27 31 32 32 35 34 32 21 15 7 9 9 12 14 13 10 10 9
43 39 38 38 36 32 29 30 32 29 28 27 29 30 30 29 28 28 26 28 27 27 27 28 30 26 20 15 10 8 7 8 12 12 9 7 7 5
40 37 37 35 30 28 27 26 24 26 28 29 29 29 29 28 28 29 29 27 26 25 23 24 23 16 10 11 13 14 15 15 17 21 18 6 2 11
38 36 34 29 25 25 22 22 23 25 26 27 28 30 29 27 26 28 27 25 26 28 23 20 16 13 14 15 17 18 18 20 21 19 18 11 1 9
35 34 29 26 26 24 23 23 24 26 27 28 30 30 28 27 24 24 25 24 24 25 24 20 14 14 17 19 23 27 25 21 18 16 12 8 5 7
33 29 26 25 24 23 23 24 26 27 29 30 30 27 26 25 22 21 22 25 21 22 20 17 15 16 18 22 25 24 22 22 17 16 22 18 12 14
27 26 25 23 22 23 23 25 26 27 28 28 24 24 25 25 21 18 20 22 21 18 15 14 13 16 19 20 20 21 21 23 27 23 23 24 20 24
24 23 23 22 22 23 24 25 27 28 28 23 21 22 23 23 19 19 20 20 18 14 11 11 12 15 16 12 13 14 17 19 24 24 23 27 26 27
23 22 21 21 22 23 25 26 26 25 21 18 21 20 20 20 19 19 19 18 16 15 10 9 10 11 9 9 10 10 11 14 17 21 26 32 33 35
22 19 19 21 23 25 27 26 25 22 19 20 21 21 19 19 18 18 17 15 15 14 10 6 5 6 6 8 10 9 9 10 15 14 22 26 30 32
Wind_Direction
311 310 309 308 307 307 306 304 303 303 303 304 304 304 302 300 299 298 297 296 296 297 294 291 287 283 277 280 276 274 269 264 262 264 265 259 260 261
312 311 310 309 308 307 306 304 302 299 299 303 303 302 301 300 299 297 298 298 298 296 295 290 286 282 281 269 269 270 267 271 272 270 270 265 263 264
313 311 310 308 309 309 308 304 302 300 299 300 301 300 297 298 299 301 302 307 307 305 301 298 289 282 275 275 272 272 273 272 267 263 262 264 262 258
313 311 311 312 312 310 307 305 302 301 300 301 301 300 300 299 300 299 303 305 307 306 305 299 297 293 283 280 279 275 276 273 265 262 259 262 260 259
313 314 314 312 311 310 308 305 303 303 304 305 304 302 302 303 302 304 305 305 303 304 300 303 298 291 287 280 278 268 265 268 268 266 264 260 255 249
315 314 313 312 312 310 308 307 307 307 305 303 303 304 305 293 296 301 304 303 303 302 303 305 297 294 290 285 279 274 271 270 269 268 268 266 259 258
315 314 315 314 312 311 311 311 310 309 308 301 305 311 302 302 305 307 304 304 305 310 310 304 300 297 291 283 278 274 272 272 270 267 264 255 250 251
317 317 315 314 313 313 312 310 311 308 308 315 302 297 300 304 306 306 308 309 306 307 307 302 304 298 293 287 279 274 271 268 265 265 263 260 256 243
318 317 317 316 315 314 314 316 315 316 308 299 301 302 307 311 310 309 308 307 307 313 311 306 308 300 303 292 287 279 274 269 264 261 259 257 252 247
319 318 317 318 318 318 319 318 311 305 309 304 305 311 311 312 310 310 310 310 312 316 314 309 316 309 308 300 289 279 276 276 275 269 262 259 254 249
320 320 321 320 319 321 318 308 312 314 310 312 315 315 316 314 314 312 313 311 315 321 328 311 319 317 317 312 287 282 280 276 273 269 262 252 240 236
321 321 321 321 321 319 315 316 317 318 322 325 324 323 322 322 320 319 321 320 323 326 336 316 321 325 323 333 315 301 284 293 293 286 280 272 256 244
323 324 326 325 324 321 322 322 322 324 326 327 330 332 330 331 330 328 327 325 324 324 331 321 322 323 318 323 327 286 296 297 298 312 302 291 272 250
327 328 329 326 326 327 327 326 327 325 327 331 334 337 338 338 338 334 331 328 327 324 326 321 319 323 322 329 338 317 320 329 343 329 319 310 311 271
326 330 328 329 330 331 330 328 327 328 333 336 339 341 342 344 341 336 335 333 334 331 328 327 328 327 329 346 22 31 19 1 330 337 348 328 256 216
328 332 331 332 333 332 328 328 333 338 340 339 340 343 343 342 345 344 344 342 345 349 347 345 347 356 26 45 49 37 26 17 7 5 10 5 270 208
329 332 333 333 333 332 336 339 340 341 342 341 342 341 340 341 347 348 349 352 352 358 9 11 17 48 55 54 51 44 33 20 9 6 352 12 353 214
333 333 334 334 336 341 344 348 347 346 345 344 342 341 345 348 349 354 357 2 3 8 18 25 46 60 60 59 58 46 28 18 16 26 13 15 85 157
334 333 333 336 341 345 346 348 349 348 345 343 342 350 354 352 351 354 2 12 9 16 25 36 55 60 61 60 59 48 37 30 27 37 42 49 81 94
334 333 335 339 343 347 350 351 350 346 344 343 354 357 355 356 356 358 1 9 13 20 31 45 61 67 64 62 61 56 48 45 42 48 53 54 59 85
338 337 338 343 347 352 353 351 348 346 346 349 354 355 355 357 4 7 14 10 15 22 41 59 77 72 59 57 70 63 53 48 49 51 58 65 77 89
341 342 345 347 350 352 353 351 350 347 350 354 352 352 352 353 0 9 12 12 17 25 35 60 77 80 66 55 46 49 52 50 54 60 72 69 75 88
346 348 347 350 352 352 352 350 352 356 2 2 355 350 348 352 355 5 7 12 20 25 34 48 78 76 66 54 47 40 47 57 57 64 75 79 82 90